Regional Weather Roundup
Issued by NWS

Home | Current Version | Previous Version | Text Only | Print | Product List | Glossary On
Versions: 1 2 3 4 5 6 7 8 9 10 11 12 13 14 15 16 17 18 19 20 21 22 23 24 25 26 27 28 29 30 31 32 33 34 35 36 37 38 39 40 41 42 43 44 45 46 47 48 49 50
000
ASUS46 KSTO 211915
RWRCA

NORTHERN AND CENTRAL CA REGIONAL WEATHER ROUNDUP
NATIONAL WEATHER SERVICE SACRAMENTO CA
1100 AM PST SAT JAN 21 2017

NOTE: FAIR INDICATES FEW OR NO CLOUDS BELOW 12,000 FEET WITH NO
SIGNIFICANT WEATHER AND/OR OBSTRUCTIONS TO VISIBILITY.

CAZ001-003-212000-
NORTHWEST AREA

CITY           SKY/WX    TMP DP  RH WIND       PRES   REMARKS
CRESCENT CITY  CLOUDY    51  46  83 SW14      29.61R
UKIAH          LGT RAIN  49  44  83 NW3       29.77R
$$

CAZ006-505>513-212000-
BAY AREA

CITY           SKY/WX    TMP DP  RH WIND       PRES   REMARKS
SANTA ROSA     MOSUNNY   52  47  83 W5        29.79R
SAN RAFAEL     N/A       53  MM  MM MISG
NAPA           MOSUNNY   55  46  71 S13       29.82R
CONCORD        MOSUNNY   55  44  66 S10       29.84R
OAKLAND CITY   N/A      MM  MM  MM MISG
OAKLAND        PTSUNNY   56  47  71 S10       29.85R
SAN FRAN CITY  N/A       55  MM  66 MISG
SAN FRAN ARPT  PTSUNNY   55  44  66 S7        29.85R
LIVERMORE      PTSUNNY   52  43  71 S9        29.85R
HAYWARD        PTSUNNY   55  45  68 S12       29.85R
REDWOOD CITY   N/A       55  MM  73 MISG
MOFFETT ARPT   PTSUNNY   54  45  71 E7        29.87R
SAN JOSE ARPT  PTSUNNY   55  45  68 E10       29.87R
$$
CAZ034-037-514>518-212000-
CENTRAL COAST

CITY           SKY/WX    TMP DP  RH WIND       PRES   REMARKS
WATSONVILLE    LGT RAIN  51  49  92 SE5       29.90R
SALINAS        RAIN      51  45  79 E17       29.90R
MONTEREY       CLOUDY    55  45  68 SW7       29.90R
SAN LUIS OBISP PTSUNNY   55  48  77 E9        29.95R
SANTA MARIA    CLOUDY    54  47  77 CALM      29.96R
$$
CAZ015-016-212000-
NORTHERN SACRAMENTO VALLEY

CITY           SKY/WX    TMP DP  RH WIND       PRES   REMARKS
REDDING        CLOUDY    48  43  82 S18       29.71R
RED BLUFF      MOSUNNY   51  45  79 SE23G30   29.72R
OROVILLE       CLOUDY    51  44  77 S28G36    29.79R
$$
CAZ016>018-212000-
SOUTHERN SACRAMENTO VALLEY

CITY           SKY/WX    TMP DP  RH WIND       PRES   REMARKS
AUBURN         CLOUDY    45  43  93 S10G20    29.82R
BEALE AFB      PTSUNNY   52  50  93 S25G31    29.78R
LINCOLN        MOCLDY    52  43  71 S21G28    29.82R
MARYSVILLE     CLOUDY    50  45  83 S23G30    29.81R
SAC INTL ARPT  MOSUNNY   51  46  83 S16       29.82R
MATHER AIRPORT NOT AVBL
DOWNTOWN SAC   N/A       52  MM  MM MISG
SAC EXEC ARPT  MOSUNNY   51  46  83 S12G22    29.84R
VACAVILLE      CLOUDY    53  46  77 S12       29.83R
TRAVIS AFB     MOSUNNY   55  46  70 S15       29.82R
$$
CAZ019>021-212000-
SAN JOAQUIN VALLEY

CITY           SKY/WX    TMP DP  RH WIND       PRES   REMARKS
STOCKTON       PTSUNNY   51  47  86 S15       29.87R
MODESTO        PTSUNNY   52  44  74 SE12      29.89R
MERCED         SUNNY     51  44  77 SE16      29.92R
LEMOORE        PTSUNNY   52  44  74 SE10      29.95R
FRESNO         CLOUDY    49  43  80 SE12      29.95R
HANFORD        PTSUNNY   52  45  77 VRB7      29.96R
PORTERVILLE    SUNNY     51  44  77 VRB5      29.97R
BAKERSFIELD    MOSUNNY   53  40  61 E5        29.95R
$$
CAZ011-012-071-212000-
NORTHERN MOUNTAINS

CITY           SKY/WX    TMP DP  RH WIND       PRES   REMARKS
YREKA          CLOUDY    43  33  68 S16       29.56R
MOUNT SHASTA   CLOUDY    34  31  88 VRB3      29.59R
ALTURAS        CLOUDY    37  26  64 SW12      29.57R WCI  29
$$
CAZ011-012-071-212000-
SIERRA NEVADA MTNS

CITY           SKY/WX    TMP DP  RH WIND       PRES   REMARKS
BLUE CANYON    LGT SNOW  29  28  96 S15       29.72R WCI  18
TRUCKEE        SNOW      27  27 100 CALM      29.69  VSB 1/2
TAHOE VLY ARPT LGT SNOW  30  23  75 S17G24    29.69R WCI  18
MAMMOTH LAKES  FAIR      31  12  45 W13G28    29.71R WCI  21
$$



USA.gov is the U.S. government's official web portal to all federal, state and local government web resources and services.